OpenBCM V2.0.2 (Linux)

Packet Radio Mailbox

IZ3LSV

[San Dona' di P. JN]

 Login: GUEST





  
LU9DCE > KEP      09.01.20 18:02l 248 Lines 12273 Bytes #999 (0) @ WW
BID : 6889_LU9DCE
Read: GUEST
Subj: TLE 09 01
Path: IZ3LSV<IW0QNL<JH4XSY<N3HYM<N7HPX<LU9DCE
Sent: 200109/1601Z 6889@LU9DCE.TOR.BA.ARG.SOAM LinBPQ6.0.19

            __    _  _  ___  ____   ___  ____    ____  ____  ____
           (  )  / )( \/ _ \(    \ / __)(  __)  (  _ \(  _ \/ ___)
           / (_/\) \/ (\__  )) D (( (__  ) _)    ) _ ( ) _ (\___ \
           \____/\____/(___/(____/ \___)(____)  (____/(____/(____/
               ESTACION DE PACKET RADIO - BUENOS AIRES (GF05OM)
                   BOLETINES INFORMATIVOS PROGRAMADOS (BIP)
                           LINUX - LU9DCE@GMX.COM
+----------------------------------------------------------------------------+
OSCAR 7
1  7530U 74089B   20008.77138984 -.00000045 +00000-0 +17623-5 0  9994
2  7530 101.7773 339.5651 0012104 314.8177 163.6859 12.53641456065853
OSCAR 11 (UoSAT 2)
1 14781U 84021B   20009.12635844  .00000068  00000-0  14440-4 0  9991
2 14781  97.5977  29.0119 0008817  18.2235 341.9294 14.83133655929061
OSCAR 19 (LUSAT)
1 20442U 90005G   20008.77273124 -.00000011 +00000-0 +12297-4 0  9997
2 20442 098.6735 315.6526 0010644 268.4531 091.5433 14.32942334565549
EYESAT A
1 22825U 93061C   20008.94154006  .00000003  00000-0  18985-4 0  9995
2 22825  98.9178   7.3954 0009295 120.8290 239.3807 14.30075305371144
ITAMSAT
1 22826U 93061D   20009.24531614  .00000005  00000-0  19779-4 0  9998
2 22826  98.9119   7.6726 0009916 109.6958 250.5294 14.30409957371392
RADIO ROSTO
1 23439U 94085A   20008.85874631 -.00000061 +00000-0 -53350-3 0  9997
2 23439 064.8151 145.9578 0146060 073.2214 288.4676 11.27569385030914
JAS 2
1 24278U 96046B   20008.78448504 -.00000042 +00000-0 -91810-5 0  9990
2 24278 098.5649 139.8172 0351298 071.0755 292.8117 13.53095197155150
TECHSAT 1B
1 25397U 98043D   20008.57401973 -.00000028 +00000-0 +68845-5 0  9993
2 25397 098.7120 311.4461 0001839 130.5163 229.6176 14.23677276116663
ISS (ZARYA)
1 25544U 98067A   20009.25870642  .00000873  00000-0  23631-4 0  9992
2 25544  51.6450  59.8084 0005231 113.0329   2.8809 15.49549871207220
PCSAT
1 26931U 01043C   20009.20838797 -.00000029  00000-0  20612-4 0  9991
2 26931  67.0494 195.9211 0006758 263.2565  96.7768 14.30564017954222
SAUDISAT 1C
1 27607U 02058C   20008.81677774 -.00000018  00000-0  18210-4 0  9990
2 27607  64.5546 145.5025 0067206 215.9370 143.7204 14.75600781917157
CUTE-1
1 27844U 03031E   20009.02986080  .00000046  00000-0  40469-4 0  9993
2 27844  98.6833  19.1770 0010285 154.6189 205.5496 14.22214917857339
CUBESAT XI 4
1 27848U 03031J   20009.01008321  .00000031  00000-0  33985-4 0  9998
2 27848  98.6906  19.6958 0009966 166.0802 194.0652 14.21805018857175
MOZHAYETS 4
1 27939U 03042A   20009.35562399  .00000077  00000-0  22309-4 0  9996
2 27939  98.0656 146.5473 0013963 136.5060 223.7262 14.66829579870544
CUBESAT XI 5
1 28895U 05043F   20008.83986873  .00000091  00000-0  26350-4 0  9996
2 28895  97.9851 149.9414 0017954  69.5346 290.7782 14.63727664757341
CUTE-1.7+APD II
1 32785U 08021C   20008.79583942  .00000188  00000-0  25925-4 0  9997
2 32785  97.5606   4.0068 0011905 310.7119  49.3063 14.88400496634042
DELFI C3
1 32789U 08021G   20009.17290228  .00000722  00000-0  51627-4 0  9998
2 32789  97.4402  57.4209 0013210 140.4830 219.7364 15.07374848637769
SEEDS
1 32791U 08021J   20008.67000353 +.00000371 +00000-0 +42900-4 0  9997
2 32791 097.5332 010.0090 0011826 279.7599 080.2284 14.90948052634424
YUBELEINY
1 32953U 08025A   20009.23451165  .00000037  00000-0  19437-3 0  9992
2 32953  82.5038  17.5544 0020143  45.8623 314.4105 12.43093517527720
PRISM (HITOMI)
1 33493U 09002B   20008.89670796 +.00001036 +00000-0 +95791-4 0  9990
2 33493 098.1328 302.6828 0013832 222.9061 137.1082 14.96868433595680
KKS-1 (KISEKI)
1 33499U 09002H   20008.86816513 +.00000072 +00000-0 +18695-4 0  9999
2 33499 098.3321 218.9267 0007913 278.1167 081.9143 14.75494278588900
SWISSCUBE
1 35932U 09051B   20008.72441118 +.00000098 +00000-0 +33111-4 0  9995
2 35932 098.6002 185.9021 0006582 257.9678 102.0782 14.56346754546437
BEESAT
1 35933U 09051C   20008.99022488  .00000090  00000-0  31335-4 0  9998
2 35933  98.6013 188.0098 0004729 272.5981  87.4674 14.56428404546629
ITUPSAT 1
1 35935U 09051E   20009.23496211  .00000075  00000-0  28317-4 0  9996
2 35935  98.6123 188.4823 0007045 269.6306  90.4083 14.55580421546394
XIWANG-1 (HOPE-1)
1 36122U 09072B   20008.73205173 -.00000032 +00000-0 +26434-4 0  9999
2 36122 100.0817 006.5821 0006963 231.8092 128.2393 13.16352692483724
TISAT 1
1 36799U 10035E   20009.00948062  .00000385  00000-0  44844-4 0  9997
2 36799  98.1762 173.2825 0013239 132.6438 227.5898 14.91243640515211
JUGNU
1 37839U 11058B   20008.81484622 +.00000298 +00000-0 +16928-4 0  9999
2 37839 019.9593 176.9336 0018977 057.3140 076.6429 14.12668486426041
SRMSAT
1 37841U 11058D   20008.94245397 +.00000305 +00000-0 +22617-4 0  9991
2 37841 019.9705 237.1680 0011788 280.2860 200.7572 14.10647454425475
M-CUBED/EXP-1 PRIME
1 37855U 11061F   20009.00907554  .00000803  00000-0  47773-4 0  9991
2 37855 101.7266  14.6718 0172130 190.9664 168.7777 15.05925523447521
HORYU 2
1 38340U 12025D   20008.39010760 +.00000139 +00000-0 +28224-4 0  9999
2 38340 098.3048 057.8188 0011376 188.8470 171.2539 14.75796003400793
STRAND 1
1 39090U 13009E   20009.14048358  .00000041  00000-0  29326-4 0  9999
2 39090  98.4676 216.4713 0009979  46.1976 314.0033 14.35113284359715
SOMP
1 39134U 13015E   20009.25853700  .00001404  00000-0  71968-4 0  9995
2 39134  64.8633  77.4550 0037948 270.3967  89.2812 15.20640798371693
BEESAT 3
1 39135U 13015F   20008.69284385 +.00001003 +00000-0 +58177-4 0  9992
2 39135 064.8666 100.4894 0044648 271.8852 087.7161 15.17840554370813
BEESAT 2
1 39136U 13015G   20008.54414383 +.00000863 +00000-0 +52718-4 0  9998
2 39136 064.8717 105.4120 0031027 279.9957 079.7668 15.17263057370708
CUBEBUG 1
1 39153U 13018D   20009.26362387  .00000173  00000-0  29432-4 0  9997
2 39153  97.9813 111.2946 0015669 254.0011 105.9475 14.80649700362083
ZACUBE
1 39417U 13066B   20008.79297560  .00000206  00000-0  31990-4 0  9999
2 39417  97.5610  15.8036 0060388  84.9374 275.8729 14.81203527331254
TRITON 1
1 39427U 13066M   20008.88679317 +.00000112 +00000-0 +26102-4 0  9999
2 39427 097.7035 338.9540 0112525 231.4148 127.6938 14.67927677328105
GOMX 1
1 39430U 13066Q   20009.29691187  .00000199  00000-0  45335-4 0  9992
2 39430  97.7723 317.6608 0150657 329.7279  29.5290 14.59336428326441
HUMSAT D
1 39433U 13066T   20009.06149505  .00000557  00000-0  59364-4 0  9997
2 39433  97.5288  52.9301 0030064 341.2271  18.7838 14.92345970333554
CUBEBUG 2
1 39440U 13066AA  20008.61676925 +.00000155 +00000-0 +28334-4 0  9993
2 39440 097.6158 000.1617 0081035 141.7236 218.9766 14.75940196328855
FUNCUBE 1
1 39444U 13066AE  20008.81476754  .00000251  00000-0  36975-4 0  9994
2 39444  97.5572  17.9502 0059464  78.0014 282.7857 14.82040766330163
UWE-3
1 39446U 13066AG  20009.21920612  .00000190  00000-0  31665-4 0  9991
2 39446  97.5881   7.9097 0071340 112.1907 248.6894 14.78475422329485
SPROUT
1 39770U 14029E   20009.26900596  .00000629  00000-0  75275-4 0  9997
2 39770  97.8895 116.3570 0009677 129.7282 230.4838 14.87568465305243
UNISAT 6
1 40012U 14033C   20008.86867773 +.00000152 +00000-0 +29934-4 0  9999
2 40012 097.7293 231.3642 0058750 157.6579 202.7209 14.74053501298766
DUCHIFAT 1
1 40021U 14033M   20008.73523814 +.00000381 +00000-0 +44538-4 0  9991
2 40021 097.9345 299.0888 0014289 096.2020 264.0826 14.90781165301940
QB50P1
1 40025U 14033R   20008.85623582 +.00000234 +00000-0 +30819-4 0  9995
2 40025 097.9117 293.2350 0013761 105.7039 254.5697 14.89050229301196
CHUBUSAT 1
1 40300U 14070C   20009.16204110  .00000664  00000-0  31622-4 0  9999
2 40300  97.3085  82.9668 0021252  58.5636 357.5651 15.22316860287121
NUDT-PHONESAT
1 40900U 15049B   20009.28516382  .00002050  00000-0  88798-4 0  9999
2 40900  97.4343  21.6671 0012520 179.3276 236.5959 15.23484154238800
ZDPS 2A
1 40901U 15049C   20009.37523813  .00000698  00000-0  37597-4 0  9994
2 40901  97.4616  17.2875 0012490 205.4136 263.1134 15.18015498238281
ZDPS 2B
1 40902U 15049D   20009.49300524  .00001124  00000-0  58653-4 0  9991
2 40902  97.4578  14.7445 0012588 201.7959 309.4706 15.17936443238273
XW-2A
1 40903U 15049E   20009.29688093  .00001983  00000-0  47599-4 0  9990
2 40903  97.3124  57.9732 0014840 120.5498 300.0001 15.42503692241786
KAITUO 1A
1 40904U 15049F   20009.29147072  .00000342  00000-0  21507-4 0  9997
2 40904  97.4725  12.8797 0013554 213.9700 241.0198 15.15560672237989
OBJECT G
1 40905U 15049G   20009.31310505  .00000600  00000-0  36143-4 0  9993
2 40905  97.4785  10.2473 0014700 209.8464 199.9541 15.14435603237846
XW-2C
1 40906U 15049H   20009.30898244  .00000629  00000-0  36252-4 0  9996
2 40906  97.4729  13.0808 0013904 204.2323 215.4143 15.15888308237999
XW-2D
1 40907U 15049J   20009.32573014  .00000842  00000-0  47135-4 0  9993
2 40907  97.4715  12.7852 0013287 201.0419 216.5299 15.16098493238012
LILACSAT 2
1 40908U 15049K   20009.50352395  .00000086  00000-0  83401-5 0  9998
2 40908  97.4853  11.5334 0015001 209.7295 268.8976 15.13928699237794
XW-2F
1 40910U 15049M   20009.50094770  .00000881  00000-0  47077-4 0  9992
2 40910  97.4653  15.2809 0014172 191.5055 319.7164 15.17638377238075
XW-2B
1 40911U 15049N   20009.45240705  .00000570  00000-0  33071-4 0  9992
2 40911  97.4729  13.5918 0013278 201.6705 316.5174 15.16025088237920
KAITUO 1B
1 40912U 15049P   20009.48213014  .00001220  00000-0  59718-4 0  9998
2 40912  97.4498  19.2207 0014796 171.2264 343.1849 15.19994478238417
TIANWANG 1C (TW-1C)
1 40926U 15051B   20009.37078881  .00015339  00000-0  18875-3 0  9999
2 40926  97.1099  60.5429 0006073 343.9363  75.6163 15.60309788242026
TIANWANG 1B (TW-1B)
1 40927U 15051C   20009.23679574  .00014287  00000-0  18918-3 0  9990
2 40927  97.1122  59.3356 0006803 357.5493  74.9292 15.58375504241823
